Regional Weather Roundup
Issued by NWS

Home | Current Version | Previous Version | Graphics & Text | Print | Product List | Glossary On
Versions: 1 2 3 4 5 6 7 8 9 10 11 12 13 14 15 16 17 18 19 20 21 22 23 24 25 26 27 28 29 30 31 32 33 34 35 36 37 38 39 40 41 42 43 44 45 46 47 48 49 50
000
ASUS43 KDTX 261110
RWRMI
MICHIGAN HOURLY REGIONAL WEATHER ROUNDUP
NATIONAL WEATHER SERVICE DETROIT/PONTIAC MI
600 AM EST WED NOV 26 2014

NOTE: "FAIR" INDICATES FEW OR NO CLOUDS BELOW 12,000 FEET WITH NO
SIGNIFICANT WEATHER AND/OR OBSTRUCTION TO VISIBILITY.

MIZ047>049-052>055-059>063-066>070-074>076-081>083-261200-
SOUTHEAST LOWER MICHIGAN

CITY           SKY/WX    TMP DP  RH WIND       PRES   REMARKS
ADRIAN         CLOUDY    27  20  75 E3        30.18S
ALMA           CLOUDY    28  21  75 CALM      30.17F
ANN ARBOR      CLOUDY    28  19  69 CALM      30.17F
BAD AXE        CLOUDY    29  23  76 CALM      30.18F
DETROIT CITY   CLOUDY    32  21  64 NE5       30.18F
DETROIT        CLOUDY    30  21  69 CALM      30.18F
FLINT          CLOUDY    31  20  63 CALM      30.18F
GROSSE ILE     CLOUDY    30  21  69 CALM      30.16F
HILLSDALE      CLOUDY    26  21  80 NE5       30.14F
HOWELL         CLOUDY    28  21  76 CALM      30.16F

CITY           SKY/WX    TMP DP  RH WIND       PRES   REMARKS
JACKSON        CLOUDY    27  20  75 CALM      30.16F
LAMBERTVILLE   CLOUDY    30  23  74 N3        30.17F
LANSING        CLOUDY    28  19  69 E6        30.17F
LAPEER         NOT AVBL
MASON          CLOUDY    28  21  75 CALM      30.16F
MONROE         CLOUDY    28  21  74 CALM      30.16F
MT. CLEMENS    CLOUDY    30  23  75 N7        30.16F
PONTIAC        CLOUDY    28  19  69 N3        30.15F
PORT HOPE        N/A     31  20  63 CALM      30.17S
PORT HURON     CLOUDY    30  23  74 CALM      30.19F
TRI CITIES     CLOUDY    30  21  69 N6        30.19S
YPSILANTI      CLOUDY    32  21  64 CALM      30.18F
$$
MIZ043>046-050>051-056>058-064>065-071>073-077>080-261200-
SOUTHWEST LOWER MICHIGAN

CITY           SKY/WX    TMP DP  RH WIND       PRES   REMARKS
BATTLE CREEK   CLOUDY    29  18  63 E5        30.16F
BENTON HARBOR  CLOUDY    24  18  77 SE6       30.17F
BIG RAPIDS     CLOUDY    27  26  98 CALM      30.13F
COLDWATER      CLOUDY    28  22  78 E5        30.16S
HOLLAND        CLOUDY    29  22  75 S6        30.16F
GRAND RAPIDS   CLOUDY    28  23  81 S3        30.16F
KALAMAZOO      CLOUDY    27  18  69 CALM      30.17F
MARSHALL       CLOUDY    26  19  76 E3        30.15F
MUSKEGON       CLOUDY    29  23  78 E5        30.16S
$$
MIZ016>042-261200-
NORTHERN LOWER MICHIGAN

CITY           SKY/WX    TMP DP  RH WIND       PRES   REMARKS
ALPENA         CLOUDY    27  21  78 CALM      30.18F
BEAVER ISLAND  CLOUDY    29  24  82 NE5       30.15S
BELLAIRE       CLOUDY    26  21  80 CALM      30.17F
CADILLAC       CLOUDY    23  20  88 E3        30.10F
CHARLEVOIX     CLOUDY    26  22  87 S8        30.18F
FRANKFORT      CLOUDY    26  24  92 CALM      30.15F
GAYLORD        CLOUDY    22  17  81 CALM      30.12F
GRAYLING       FLURRIES  23  21  92 CALM      30.14F
HARBOR SPRINGS CLOUDY    26  20  79 CALM      30.16F
HOUGHTON LAKE  CLOUDY    25  19  78 E6        30.14F
MANISTEE       CLOUDY    25  21  86 E5        30.15F
OSCODA         CLOUDY    28  22  79 CALM      30.18F
PELLSTON       CLOUDY    25  22  88 CALM      30.16F
TRAVERSE CITY  CLOUDY    27  21  78 SE5       30.15F
$$
MIZ007>008-015-261200-
EASTERN UPPER MICHIGAN

CITY           SKY/WX    TMP DP  RH WIND       PRES   REMARKS
KINROSS        CLOUDY    14  12  92 CALM      30.16F
MACKINAC ISLAN CLOUDY    26  20  78 E5        30.16F
NEWBERRY       PTCLDY     4   2  92 CALM      30.14F
S. S. MARIE    MOCLDY    17  12  80 S3        30.18R
$$
MIZ004>006-011>014-085-261200-
CENTRAL UPPER MICHIGAN

CITY           SKY/WX    TMP DP  RH WIND       PRES   REMARKS
MANISTIQUE     CLOUDY    11   9  92 CALM      30.15S
ESCANABA       PTCLDY     9   1  72 CALM      30.15S
MENOMINEE      PTCLDY     9   5  85 CALM      30.15S
SAWYER-GWINN   MOCLDY    -6 -11  79 CALM      30.10S
$$
MIZ001>003-009>011-084-261200-
WESTERN UPPER MICHIGAN

CITY           SKY/WX    TMP DP  RH WIND       PRES   REMARKS
IRON MOUNTAIN  PTCLDY    -1  -6  79 CALM      30.12S
HOUGHTON       CLOUDY    13   7  77 CALM      30.09S
COPPER HARBOR    N/A     21  14  74 SW7       30.11S
IRONWOOD       CLOUDY    12  10  92 CALM      30.06S
$$

ABBREVIATIONS USED IN REMARKS
   TC - TEMPERATURE IN CELSIUS
  WCI - WIND CHILL INDEX
   HX - HEAT INDEX
  VSB - VISIBILITY



USA.gov is the U.S. government's official web portal to all federal, state and local government web resources and services.